This is the latest recevied weather packets stored in our database for station/object WA6OOO. If no packets are shown the sender has not sent any weather packets the latest 10 day(s).
| Time | Temp. | Humidity | Pressure | Rain* | Wind** | Luminosity | Snow |
|---|---|---|---|---|---|---|---|
| 1788209664 | 24.44° C | 69% | 1017.2 hPa | 0 mm | - | 687 W/m² | - |
| 1788209365 | 23.89° C | 70% | 1017.1 hPa | 0 mm | - | 695 W/m² | - |
| 1788209064 | 23.89° C | 71% | 1017.1 hPa | 0 mm | - | 694 W/m² | - |
| 1788208757 | 23.89° C | 71% | 1017.1 hPa | 0 mm | - | 700 W/m² | - |
| 1788208452 | 23.89° C | 71% | 1017.2 hPa | 0 mm | - | 704 W/m² | - |
| 1788208151 | 23.33° C | 71% | 1017.3 hPa | 0 mm | - | 706 W/m² | - |
| 1788207846 | 23.89° C | 72% | 1017.4 hPa | 0 mm | - | 709 W/m² | - |
| 1788207545 | 23.33° C | 73% | 1017.5 hPa | 0 mm | - | 708 W/m² | - |
| 1788207244 | 23.33° C | 73% | 1017.3 hPa | 0 mm | - | 711 W/m² | - |
| 1788206940 | 23.33° C | 72% | 1017.5 hPa | 0 mm | - | 707 W/m² | - |
| 1788206635 | 23.89° C | 71% | 1017.4 hPa | 0 mm | - | 710 W/m² | - |
| 1788206330 | 23.89° C | 72% | 1017.5 hPa | 0 mm | - | 710 W/m² | - |
| 1788206026 | 23.33° C | 73% | 1017.7 hPa | 0 mm | - | 709 W/m² | - |
| 1788205721 | 23.89° C | 73% | 1017.7 hPa | 0 mm | - | 708 W/m² | - |
| 1788205416 | 23.33° C | 72% | 1017.5 hPa | 0 mm | - | 708 W/m² | - |
| 1788205115 | 23.33° C | 74% | 1017.6 hPa | 0 mm | - | 707 W/m² | - |
| 1788204811 | 23.33° C | 72% | 1017.5 hPa | 0 mm | - | 708 W/m² | - |
| 1788204507 | 23.33° C | 73% | 1017.6 hPa | 0 mm | - | 705 W/m² | - |
| 1788204206 | 23.33° C | 72% | 1017.7 hPa | 0 mm | - | 701 W/m² | - |
| 1788203902 | 23.89° C | 71% | 1018 hPa | 0 mm | - | 696 W/m² | - |
| 1788203599 | 23.33° C | 72% | 1017.6 hPa | 0 mm | - | 697 W/m² | - |
| 1788203294 | 23.33° C | 71% | 1017.9 hPa | 0 mm | - | 694 W/m² | - |
| 1788202993 | 23.89° C | 72% | 1017.9 hPa | 0 mm | - | 690 W/m² | - |
| 1788202693 | 23.33° C | 72% | 1017.8 hPa | 0 mm | - | 683 W/m² | - |
| 1788202389 | 23.89° C | 71% | 1017.8 hPa | 0 mm | - | 678 W/m² | - |
* Rain latest hour (hover to see other rain measurements)
** Current wind speed in m/s (hover to see current wind gust speed)